When you browse on this site, cookies collect data to enhance your experience and personalize the content and advertising you see.
Visit our Privacy Policy to learn more. By continuing to use the site, you agree to this use of cookies and data.
  • In Germany
  • List of Countries
  • For 7 days
  • Water Temperature
  • Weather Map
  • Weather Widgets
  • user-avatar
    Login

    Hourly Weather Loon op Zand

    Today, 17 February, Monday

    Time Temperature Precipitation Wind Pressure Humidity
    00:00 +6°C° 0 mm 7 mps 754 mmHg 75%
    01:00 +6°C° 0 mm 7 mps 755 mmHg 73%
    02:00 +5°C° 0 mm 8 mps 755 mmHg 72%
    03:00 +5°C° 0 mm 8 mps 756 mmHg 71%
    04:00 +5°C° 0 mm 7 mps 756 mmHg 73%
    05:00 +5°C° 0 mm 7 mps 756 mmHg 74%
    06:00 +4°C° 0 mm 6 mps 757 mmHg 81%
    07:00 +5°C° 0 mm 6 mps 757 mmHg 79%
    08:00 +5°C° 0 mm 7 mps 757 mmHg 76%
    09:00 +6°C° 0 mm 8 mps 757 mmHg 73%
    10:00 +6°C° 0.1 mm 9 mps 757 mmHg 71%
    11:00 +7°C° 0.1 mm 9 mps 757 mmHg 70%
    12:00 +8°C° 0 mm 7 mps 757 mmHg 65%
    13:00 +7°C° 0.3 mm 8 mps 757 mmHg 64%
    14:00 +7°C° 0.3 mm 8 mps 757 mmHg 63%
    15:00 +7°C° 0.3 mm 8 mps 757 mmHg 63%
    16:00 +7°C° 0.1 mm 8 mps 757 mmHg 68%
    17:00 +6°C° 0.1 mm 8 mps 757 mmHg 73%
    18:00 +6°C° 0.1 mm 7 mps 758 mmHg 78%
    19:00 +6°C° 0.3 mm 7 mps 758 mmHg 79%
    20:00 +5°C° 0.3 mm 7 mps 759 mmHg 80%
    21:00 +5°C° 0.3 mm 7 mps 759 mmHg 80%
    22:00 +5°C° 0.1 mm 7 mps 760 mmHg 80%
    23:00 +5°C° 0.1 mm 7 mps 761 mmHg 80%

    Tomorrow, 18 February, Tuesday

    Time Temperature Precipitation Wind Pressure Humidity
    00:00 +5°C° 0.1 mm 7 mps 761 mmHg 79%
    01:00 +4°C° 0.1 mm 7 mps 762 mmHg 78%
    02:00 +4°C° 0.1 mm 7 mps 762 mmHg 77%
    03:00 +3°C° 0.1 mm 6 mps 763 mmHg 77%
    04:00 +3°C° 0 mm 6 mps 763 mmHg 76%
    05:00 +3°C° 0 mm 6 mps 764 mmHg 76%
    06:00 +2°C° 0 mm 6 mps 764 mmHg 76%
    07:00 +3°C° 0 mm 6 mps 765 mmHg 74%
    08:00 +3°C° 0 mm 7 mps 765 mmHg 72%
    09:00 +4°C° 0 mm 7 mps 765 mmHg 71%
    10:00 +5°C° 0.1 mm 8 mps 765 mmHg 69%
    11:00 +5°C° 0.1 mm 8 mps 765 mmHg 68%
    12:00 +6°C° 0.1 mm 8 mps 765 mmHg 66%
    13:00 +6°C° 0.1 mm 8 mps 764 mmHg 66%
    14:00 +6°C° 0.1 mm 7 mps 764 mmHg 65%
    15:00 +8°C° 0.1 mm 7 mps 764 mmHg 64%
    16:00 +6°C° 0 mm 7 mps 763 mmHg 67%
    17:00 +5°C° 0 mm 7 mps 763 mmHg 70%
    18:00 +5°C° 0 mm 7 mps 763 mmHg 73%
    19:00 +5°C° 0.2 mm 7 mps 762 mmHg 77%
    20:00 +5°C° 0.2 mm 8 mps 761 mmHg 82%
    21:00 +4°C° 0.2 mm 8 mps 761 mmHg 86%
    22:00 +4°C° 0.4 mm 8 mps 760 mmHg 86%
    23:00 +5°C° 0.4 mm 8 mps 759 mmHg 85%

    Day after tomorrow, 19 February, Wednesday

    Time Temperature Precipitation Wind Pressure Humidity
    00:00 +5°C° 0.4 mm 8 mps 759 mmHg 84%
    01:00 +4°C° 0.6 mm 7 mps 759 mmHg 81%
    02:00 +4°C° 0.6 mm 7 mps 759 mmHg 77%
    03:00 +3°C° 0.6 mm 6 mps 759 mmHg 74%
    04:00 +2°C° 0 mm 6 mps 760 mmHg 75%
    05:00 +2°C° 0 mm 6 mps 761 mmHg 75%
    06:00 +2°C° 0 mm 6 mps 761 mmHg 76%
    07:00 +2°C° 0 mm 6 mps 762 mmHg 74%
    08:00 +3°C° 0 mm 6 mps 762 mmHg 72%
    09:00 +3°C° 0 mm 6 mps 763 mmHg 70%
    10:00 +3°C° 0 mm 6 mps 763 mmHg 68%
    11:00 +4°C° 0 mm 7 mps 763 mmHg 66%
    12:00 +4°C° 0 mm 7 mps 764 mmHg 64%
    13:00 +4°C° 0 mm 7 mps 764 mmHg 64%
    14:00 +4°C° 0 mm 6 mps 764 mmHg 63%
    15:00 +4°C° 0 mm 6 mps 764 mmHg 62%
    16:00 +5°C° 0 mm 5 mps 764 mmHg 66%
    17:00 +4°C° 0 mm 4 mps 764 mmHg 69%
    18:00 +3°C° 0 mm 3 mps 763 mmHg 73%
    19:00 +4°C° 0 mm 4 mps 763 mmHg 77%
    20:00 +3°C° 0 mm 5 mps 763 mmHg 81%
    21:00 +4°C° 0 mm 6 mps 762 mmHg 86%
    22:00 +4°C° 0.1 mm 6 mps 762 mmHg 86%
    23:00 +5°C° 0.1 mm 6 mps 762 mmHg 86%

    20 February, Thursday

    Time Temperature Precipitation Wind Pressure Humidity
    00:00 +5°C° 0.1 mm 7 mps 761 mmHg 86%
    01:00 +5°C° 0.1 mm 7 mps 761 mmHg 86%
    02:00 +5°C° 0.1 mm 7 mps 760 mmHg 86%
    03:00 +6°C° 0.1 mm 7 mps 760 mmHg 86%
    04:00 +5°C° 0 mm 7 mps 759 mmHg 85%
    05:00 +5°C° 0 mm 6 mps 759 mmHg 85%
    06:00 +5°C° 0 mm 6 mps 759 mmHg 85%
    07:00 +5°C° 0 mm 6 mps 759 mmHg 82%
    08:00 +5°C° 0 mm 6 mps 759 mmHg 80%
    09:00 +6°C° 0 mm 7 mps 758 mmHg 77%
    10:00 +6°C° 0 mm 7 mps 758 mmHg 75%
    11:00 +8°C° 0 mm 7 mps 758 mmHg 72%
    12:00 +8°C° 0 mm 7 mps 758 mmHg 69%
    13:00 +7°C° 0 mm 8 mps 757 mmHg 70%
    14:00 +7°C° 0 mm 8 mps 757 mmHg 70%
    15:00 +7°C° 0 mm 8 mps 757 mmHg 70%
    16:00 +7°C° 0.1 mm 9 mps 756 mmHg 72%
    17:00 +7°C° 0.1 mm 9 mps 756 mmHg 73%
    18:00 +7°C° 0.1 mm 9 mps 756 mmHg 75%
    19:00 +6°C° 0.5 mm 9 mps 757 mmHg 74%
    20:00 +6°C° 0.5 mm 8 mps 758 mmHg 73%
    21:00 +5°C° 0.5 mm 7 mps 759 mmHg 72%
    22:00 +4°C° 0 mm 7 mps 760 mmHg 73%
    23:00 +3°C° 0 mm 6 mps 761 mmHg 75%

    21 February, Friday

    Time Temperature Precipitation Wind Pressure Humidity
    00:00 +3°C° 0 mm 6 mps 762 mmHg 76%
    01:00 +2°C° 0 mm 6 mps 763 mmHg 74%
    02:00 +2°C° 0 mm 5 mps 764 mmHg 72%
    03:00 +2°C° 0 mm 5 mps 765 mmHg 70%
    04:00 +2°C° 0 mm 5 mps 765 mmHg 72%
    05:00 +1°C° 0 mm 5 mps 766 mmHg 74%
    06:00 +1°C° 0 mm 5 mps 767 mmHg 75%
    13:00 +6°C° 0 mm 7 mps 770 mmHg 60%
    14:00 +6°C° 0 mm 7 mps 770 mmHg 59%
    15:00 +6°C° 0 mm 7 mps 769 mmHg 58%
    16:00 +7°C° 0 mm 6 mps 769 mmHg 62%
    17:00 +5°C° 0 mm 6 mps 769 mmHg 65%
    18:00 +5°C° 0 mm 5 mps 769 mmHg 69%
    19:00 +4°C° 0 mm 6 mps 769 mmHg 70%
    20:00 +4°C° 0 mm 7 mps 769 mmHg 71%
    21:00 +4°C° 0 mm 7 mps 769 mmHg 72%
    22:00 +4°C° 0 mm 8 mps 769 mmHg 73%
    23:00 +4°C° 0 mm 8 mps 768 mmHg 74%

    22 February, Saturday

    Time Temperature Precipitation Wind Pressure Humidity
    00:00 +4°C° 0 mm 8 mps 768 mmHg 74%
    01:00 +4°C° 0 mm 8 mps 768 mmHg 75%
    02:00 +3°C° 0 mm 9 mps 767 mmHg 75%
    03:00 +3°C° 0 mm 9 mps 767 mmHg 76%
    04:00 +3°C° 0 mm 9 mps 767 mmHg 77%
    05:00 +3°C° 0 mm 9 mps 766 mmHg 77%
    06:00 +3°C° 0 mm 9 mps 766 mmHg 77%
    07:00 +3°C° 0 mm 9 mps 766 mmHg 78%
    08:00 +5°C° 0 mm 10 mps 766 mmHg 78%
    09:00 +5°C° 0 mm 10 mps 766 mmHg 78%
    10:00 +6°C° 0 mm 10 mps 766 mmHg 78%
    11:00 +6°C° 0 mm 10 mps 766 mmHg 79%
    12:00 +7°C° 0 mm 10 mps 766 mmHg 79%
    13:00 +7°C° 0 mm 10 mps 766 mmHg 80%
    14:00 +8°C° 0 mm 10 mps 766 mmHg 80%
    15:00 +8°C° 0 mm 10 mps 765 mmHg 81%
    16:00 +9°C° 0 mm 10 mps 766 mmHg 81%
    17:00 +9°C° 0 mm 10 mps 766 mmHg 81%
    18:00 +10°C° 0 mm 9 mps 766 mmHg 81%
    19:00 +10°C° 0.1 mm 9 mps 766 mmHg 83%
    20:00 +10°C° 0.1 mm 9 mps 766 mmHg 84%
    21:00 +10°C° 0.1 mm 9 mps 767 mmHg 86%
    22:00 +10°C° 0.1 mm 9 mps 767 mmHg 87%
    23:00 +10°C° 0.1 mm 8 mps 767 mmHg 89%
    Show more